Location: Melbourne
(37.8170°S, 144.9670°E)
Time: 13:11:20
(UTC+10:00)

Explorer 11/Cluster Stage 4 - Visible Passes

Search period start: 26 August 2016 00:00
Search period end: 05 September 2016 00:00
Orbit: 467 x 1265 km, 28.8° (Epoch: 25 August)

Date Brightness Start Highest point End Pass type
(mag) Time Alt. Az. Time Alt. Az. Time Alt. Az.
26 Aug 8.2 04:24:35 18° NE 04:24:35 18° NE 04:26:03 10° NE visible
26 Aug 8.1 06:07:52 10° NW 06:10:00 13° NNW 06:12:00 10° N visible
27 Aug 8.5 04:15:28 16° NE 04:15:28 16° NE 04:16:30 10° NE visible
27 Aug 8.2 05:58:26 10° NW 06:00:17 12° NNW 06:02:02 10° N visible
28 Aug 8.7 04:06:23 13° NE 04:06:23 13° NE 04:06:56 10° NE visible
28 Aug 8.3 05:49:07 10° NW 05:50:32 11° NNW 05:51:53 10° N visible
29 Aug 8.4 05:40:18 10° NW 05:40:46 10° NNW 05:41:13 10° NNW visible
02 Sep 9.3 19:47:21 10° NNE 19:48:55 11° NNE 19:48:55 11° NNE visible
03 Sep 9.1 19:36:12 10° N 19:39:53 14° NNE 19:40:07 14° NNE visible
03 Sep 9.5 21:21:18 10° NW 21:22:21 14° NW 21:22:21 14° NW visible
04 Sep 9.0 19:25:30 10° N 19:29:52 16° NNE 19:31:17 15° NE visible
04 Sep 9.2 21:11:11 10° NW 21:13:30 19° NNW 21:13:30 19° NNW visible
